• Join FlightAware (Why Join?)
  • Login
  • US Flag 
06:28PM EST


 

Airport Tracker/Info


-or-


 

Live Flight TrackerFlight Track Log ✈ VRT51 ✈ 21-Aug-2013 ✈ KROG - KLIT

Flight Track Log - Related Links

Times and Time Zones

All times are in EDT time to prevent confusion due to time zone crossing. See the VRT51 flight status page for this flight to view local times or setup timezone preferences in your user account.

Time Position Orientation Groundspeed Altitude Reporting Facility
EDT Latitude Longitude Course Direction KTS MPH feet Rate Location/Type
09:52PM 36.0975 -93.8375 141° Southeast 345 397 13,000  Level Memphis Center
09:53PM 36.0938 -93.7771 141° Southeast  Level FlightAware Approximate
09:53PM 36.0189 -93.7419 135° Southeast 370 426 14,900  Level Memphis Center
09:54PM 36.0349 -93.7182 141° Southeast  Level FlightAware Approximate
09:54PM 35.9361 -93.6461 137° Southeast 393 452 15,000  Level Memphis Center
09:55PM 35.9761 -93.6594 141° Southeast  Level FlightAware Approximate
09:55PM 35.8550 -93.5483 136° Southeast 404 465 15,000  Level Memphis Center
09:56PM 35.9246 -93.5911 131° Southeast  Level FlightAware Approximate
09:56PM 35.7722 -93.4503 136° Southeast 410 472 15,000  Level Memphis Center
09:57PM 35.8731 -93.5230 141° Southeast  Level FlightAware Approximate
09:57PM 35.6911 -93.3503 135° Southeast 410 472 15,000  Level Memphis Center
09:58PM 35.6119 -93.2556 136° Southeast 410 472 15,000 50 Level Memphis Center
09:59PM 35.5267 -93.1581 137° Southeast 410 472 15,100 50 Climbing Memphis Center
10:00PM 35.4475 -93.0636 136° Southeast 410 472 15,100 -700 Level Memphis Center
10:01PM 35.3539 -92.9536 136° Southeast 410 472 13,700 -1,500 Descending Memphis Center
10:02PM 35.2825 -92.8753 138° Southeast 381 438 12,200 -1,673 Descending Memphis Center
10:02PM 35.2256 -92.8022 134° Southeast 374 430 10,800 -1,211 Descending Memphis Center
10:03PM 35.1519 -92.7214 138° Southeast 362 417 10,000 -393 Descending Memphis Center
10:04PM 35.0806 -92.6358 136° Southeast 349 402 10,000 -744 Level Memphis Center
10:05PM 35.0317 -92.5633 129° Southeast 272 313 8,500 -1,636 Descending Memphis Center
10:06PM 34.9789 -92.4861 130° Southeast 272 313 6,700 -1,934 Descending Memphis Center
10:07PM 34.9322 -92.4064 126° Southeast 283 326 4,600 -1,339 Descending Memphis Center
10:09PM 34.8853 -92.3369 129° Southeast 270 311 4,000 -590 Descending Memphis Center
10:10PM 34.8425 -92.2700 128° Southeast 225 259 3,400 -818 Descending Memphis Center
10:11PM 34.7886 -92.2411 156° South 193 222 2,200 -992 Descending Memphis Center
10:12PM 34.7492 -92.2400 179° South 145 167 1,400 -103 Descending Memphis Center
10:13PM 34.7111 -92.2644 208° Southwest 159 183 2,000 236 Climbing Memphis Center
10:14PM 34.7464 -92.2831 337° Northwest 165 190 1,900 -397 Descending Memphis Center
10:15PM 34.7758 -92.2583 35° Northeast 135 155 1,200 -694 Descending Memphis Center
10:16PM 34.7492 -92.2400 151° Southeast 127 146 500 -700 Descending Memphis Center